VRE730 DIAP-DFFD

Flight info

Callsign VRE730
Flight time 1h 20m
Altitude 23000
Route ZANOU G859 AMSAT/N0452F370 UG859 TUMUT TUMUT1E
Aircraft A319/M-SDE3FGHIRWY/LB1

Departure

Time 2026-05-04 14:56
Airport Félix-Houphouët-Boigny International Airport (DIAP)

Arrival

Time 2026-05-04 16:16
Airport Ouagadougou Thomas Sankara International Airport (DFFD)
Time Latitude Longitude Altitude Speed Heading
2026-05-04 13:48 5.25558 -3.93125 36 ft 0 kts 319°
2026-05-04 13:49 5.25557 -3.93125 36 ft 0 kts 319°
2026-05-04 13:52 5.25557 -3.93124 36 ft 0 kts 319°
2026-05-04 14:12 5.25556 -3.93124 36 ft 0 kts 319°
2026-05-04 14:21 5.25556 -3.93123 36 ft 0 kts 319°
2026-05-04 14:34 5.25549 -3.93118 64 ft 4 kts 319°
2026-05-04 14:35 5.25529 -3.93100 36 ft 4 kts 318°
2026-05-04 14:35 5.25509 -3.93082 35 ft 4 kts 320°
2026-05-04 14:35 5.25488 -3.93065 32 ft 4 kts 326°
2026-05-04 14:35 5.25464 -3.93052 31 ft 4 kts 347°
2026-05-04 14:36 5.25447 -3.93052 32 ft 1 kts 22°
2026-05-04 14:36 5.25444 -3.93053 32 ft 1 kts 22°
2026-05-04 14:47 5.25443 -3.93053 36 ft 0 kts 22°
2026-05-04 14:49 5.25451 -3.93050 52 ft 3 kts 22°
2026-05-04 14:49 5.25495 -3.93032 36 ft 11 kts 22°
2026-05-04 14:49 5.25573 -3.93000 35 ft 15 kts 22°
2026-05-04 14:49 5.25682 -3.92955 36 ft 19 kts 23°
2026-05-04 14:50 5.25818 -3.92897 36 ft 23 kts 23°
2026-05-04 14:50 5.25979 -3.92829 37 ft 27 kts 21°
2026-05-04 14:50 5.26163 -3.92755 36 ft 28 kts 22°
2026-05-04 14:50 5.26348 -3.92679 35 ft 29 kts 22°
2026-05-04 14:51 5.26534 -3.92602 35 ft 29 kts 22°
2026-05-04 14:51 5.26722 -3.92524 36 ft 30 kts 22°
2026-05-04 14:51 5.26917 -3.92443 36 ft 30 kts 22°
2026-05-04 14:51 5.27083 -3.92375 36 ft 23 kts 22°
2026-05-04 14:52 5.27163 -3.92285 37 ft 14 kts 103°
2026-05-04 14:52 5.27148 -3.92246 36 ft 5 kts 111°
2026-05-04 14:52 5.27141 -3.92228 38 ft 0 kts 111°
2026-05-04 14:52 5.27139 -3.92223 38 ft 1 kts 111°
2026-05-04 14:53 5.27137 -3.92218 38 ft 0 kts 111°
2026-05-04 14:53 5.27129 -3.92197 39 ft 9 kts 105°
2026-05-04 14:53 5.27181 -3.92147 38 ft 12 kts 20°
2026-05-04 14:54 5.27267 -3.92115 39 ft 14 kts 20°
2026-05-04 14:54 5.27361 -3.92108 36 ft 9 kts 37°
2026-05-04 14:54 5.27353 -3.92093 38 ft 3 kts 155°
2026-05-04 14:54 5.27327 -3.92092 37 ft 4 kts 191°
2026-05-04 14:55 5.27287 -3.92106 36 ft 11 kts 201°
2026-05-04 14:55 5.26966 -3.92235 39 ft 89 kts 202°
2026-05-04 14:55 5.26190 -3.92553 40 ft 149 kts 202°
2026-05-04 14:55 5.25192 -3.92965 512 ft 159 kts 200°
2026-05-04 14:56 5.24171 -3.93380 1198 ft 160 kts 198°
2026-05-04 14:56 5.23136 -3.93815 1899 ft 163 kts 200°
2026-05-04 14:56 5.22236 -3.94541 2526 ft 175 kts 231°
2026-05-04 14:56 5.21911 -3.95775 2925 ft 203 kts 277°
2026-05-04 14:57 5.22638 -3.97050 3241 ft 227 kts 324°
2026-05-04 14:57 5.24175 -3.97571 3693 ft 248 kts
2026-05-04 14:57 5.25916 -3.97193 4299 ft 265 kts 22°
2026-05-04 14:57 5.27635 -3.96473 5316 ft 269 kts 27°
2026-05-04 14:58 5.29342 -3.95683 6360 ft 272 kts 28°
2026-05-04 14:58 5.31075 -3.94900 7351 ft 275 kts 28°
2026-05-04 14:58 5.32847 -3.94145 8352 ft 278 kts 27°
2026-05-04 14:58 5.34040 -3.93661 9013 ft 281 kts 27°
2026-05-04 14:59 5.36503 -3.92707 10202 ft 289 kts 26°
2026-05-04 14:59 5.38466 -3.91967 10558 ft 314 kts 25°
2026-05-04 14:59 5.42744 -3.90395 11883 ft 334 kts 25°
2026-05-04 15:00 5.44946 -3.89598 12709 ft 339 kts 24°
2026-05-04 15:00 5.47150 -3.88800 13507 ft 343 kts 24°
2026-05-04 15:00 5.49442 -3.87970 14241 ft 348 kts 24°
2026-05-04 15:01 5.54016 -3.86303 15602 ft 356 kts 24°
2026-05-04 15:01 5.56357 -3.85445 16292 ft 361 kts 24°
2026-05-04 15:01 5.58726 -3.84575 16966 ft 365 kts 24°
2026-05-04 15:01 5.61131 -3.83691 17634 ft 369 kts 24°
2026-05-04 15:02 5.63559 -3.82801 18281 ft 374 kts 23°
2026-05-04 15:02 5.66013 -3.81902 18846 ft 378 kts 23°
2026-05-04 15:02 5.68494 -3.80993 19428 ft 382 kts 22°
2026-05-04 15:02 5.71001 -3.80075 20016 ft 386 kts 22°
2026-05-04 15:03 5.73535 -3.79147 20604 ft 390 kts 22°
2026-05-04 15:03 5.76097 -3.78208 21182 ft 394 kts 22°
2026-05-04 15:03 5.78685 -3.77260 21763 ft 398 kts 21°
2026-05-04 15:03 5.81296 -3.76304 22339 ft 401 kts 21°
2026-05-04 15:04 5.83933 -3.75336 22769 ft 405 kts 21°
2026-05-04 15:04 5.86577 -3.74365 22877 ft 402 kts 21°
2026-05-04 15:04 5.88311 -3.73730 22895 ft 397 kts 21°
2026-05-04 15:04 5.91769 -3.72466 22896 ft 394 kts 21°
2026-05-04 15:05 5.94350 -3.71520 22901 ft 394 kts 21°
2026-05-04 15:05 5.96052 -3.70894 22892 ft 394 kts 21°
2026-05-04 15:05 5.98627 -3.69948 22895 ft 394 kts 21°
2026-05-04 15:05 6.01203 -3.69003 22894 ft 394 kts 21°
2026-05-04 15:06 6.03776 -3.68059 22897 ft 394 kts 21°
2026-05-04 15:06 6.06351 -3.67113 22897 ft 394 kts 21°
2026-05-04 15:06 6.08924 -3.66168 22899 ft 394 kts 21°
2026-05-04 15:07 6.14068 -3.64275 22895 ft 394 kts 21°
2026-05-04 15:07 6.16640 -3.63331 22893 ft 394 kts 21°
2026-05-04 15:07 6.19211 -3.62388 22893 ft 394 kts 21°
2026-05-04 15:07 6.21783 -3.61445 22891 ft 393 kts 21°
2026-05-04 15:08 6.24354 -3.60499 22896 ft 394 kts 21°
2026-05-04 15:08 6.26930 -3.59552 22891 ft 394 kts 21°
2026-05-04 15:08 6.29505 -3.58606 22892 ft 394 kts 21°
2026-05-04 15:08 6.32080 -3.57663 22892 ft 394 kts 21°
2026-05-04 15:09 6.34654 -3.56720 22893 ft 394 kts 21°
2026-05-04 15:09 6.37230 -3.55773 22892 ft 394 kts 21°
2026-05-04 15:09 6.39803 -3.54825 22892 ft 394 kts 21°
2026-05-04 15:10 6.44955 -3.52928 22888 ft 394 kts 21°
2026-05-04 15:10 6.47526 -3.51984 22891 ft 394 kts 21°
2026-05-04 15:10 6.52675 -3.50085 22889 ft 394 kts 21°
2026-05-04 15:11 6.55219 -3.49149 22890 ft 394 kts 21°
2026-05-04 15:11 6.57807 -3.48236 22891 ft 394 kts 20°
2026-05-04 15:11 6.60410 -3.47360 22890 ft 394 kts 19°
2026-05-04 15:11 6.63018 -3.46506 22889 ft 394 kts 19°
2026-05-04 15:12 6.65627 -3.45653 22889 ft 394 kts 19°
2026-05-04 15:12 6.68236 -3.44793 22889 ft 394 kts 19°
2026-05-04 15:12 6.70839 -3.43928 22891 ft 394 kts 19°
2026-05-04 15:12 6.73442 -3.43057 22891 ft 394 kts 19°
2026-05-04 15:13 6.76046 -3.42179 22893 ft 394 kts 19°
2026-05-04 15:13 6.78646 -3.41301 22893 ft 394 kts 19°
2026-05-04 15:13 6.81243 -3.40425 22898 ft 394 kts 19°
2026-05-04 15:13 6.83846 -3.39547 22895 ft 394 kts 19°
2026-05-04 15:14 6.86446 -3.38672 22891 ft 394 kts 19°
2026-05-04 15:14 6.89046 -3.37799 22891 ft 394 kts 19°
2026-05-04 15:14 6.91647 -3.36926 22892 ft 394 kts 19°
2026-05-04 15:14 6.94249 -3.36053 22888 ft 394 kts 19°
2026-05-04 15:15 6.96850 -3.35177 22892 ft 394 kts 19°
2026-05-04 15:15 6.99450 -3.34302 22892 ft 394 kts 19°
2026-05-04 15:15 7.02048 -3.33426 22889 ft 394 kts 19°
2026-05-04 15:16 7.07246 -3.31675 22892 ft 394 kts 19°
2026-05-04 15:16 7.09852 -3.30798 22891 ft 394 kts 19°
2026-05-04 15:16 7.15049 -3.29044 22889 ft 394 kts 19°
2026-05-04 15:17 7.17654 -3.28166 22890 ft 394 kts 19°
2026-05-04 15:17 7.22828 -3.26423 22889 ft 394 kts 19°
2026-05-04 15:17 7.25426 -3.25551 22885 ft 394 kts 19°
2026-05-04 15:18 7.28030 -3.24676 22883 ft 394 kts 19°
2026-05-04 15:18 7.30632 -3.23800 22886 ft 394 kts 19°
2026-05-04 15:18 7.33233 -3.22923 22887 ft 394 kts 19°
2026-05-04 15:19 7.38438 -3.21167 22888 ft 394 kts 19°
2026-05-04 15:19 7.41036 -3.20290 22887 ft 394 kts 19°
2026-05-04 15:19 7.46242 -3.18537 22881 ft 394 kts 19°
2026-05-04 15:20 7.48840 -3.17663 22878 ft 394 kts 19°
2026-05-04 15:20 7.51438 -3.16786 22882 ft 394 kts 19°
2026-05-04 15:20 7.54037 -3.15907 22877 ft 394 kts 19°
2026-05-04 15:20 7.56640 -3.15026 22879 ft 394 kts 19°
2026-05-04 15:21 7.59239 -3.14146 22879 ft 394 kts 19°
2026-05-04 15:21 7.61837 -3.13269 22881 ft 394 kts 19°
2026-05-04 15:21 7.67039 -3.11516 22883 ft 394 kts 19°
2026-05-04 15:22 7.69641 -3.10638 22885 ft 394 kts 19°
2026-05-04 15:22 7.72207 -3.09771 22885 ft 394 kts 19°
2026-05-04 15:22 7.77404 -3.08011 22885 ft 394 kts 19°
2026-05-04 15:23 7.80007 -3.07128 22884 ft 394 kts 19°
2026-05-04 15:23 7.82605 -3.06249 22885 ft 394 kts 19°
2026-05-04 15:23 7.85201 -3.05373 22882 ft 394 kts 19°
2026-05-04 15:23 7.87801 -3.04495 22879 ft 394 kts 19°
2026-05-04 15:24 7.92995 -3.02741 22877 ft 394 kts 19°
2026-05-04 15:24 7.98183 -3.00982 22878 ft 393 kts 19°
2026-05-04 15:25 8.00779 -3.00103 22877 ft 393 kts 20°
2026-05-04 15:25 8.03370 -2.99226 22876 ft 393 kts 19°
2026-05-04 15:25 8.05967 -2.98348 22876 ft 393 kts 19°
2026-05-04 15:26 8.11154 -2.96586 22868 ft 393 kts 20°
2026-05-04 15:26 8.13743 -2.95703 22871 ft 393 kts 20°
2026-05-04 15:26 8.18937 -2.93946 22869 ft 394 kts 19°
2026-05-04 15:27 8.21531 -2.93069 22867 ft 393 kts 19°
2026-05-04 15:27 8.26725 -2.91316 22868 ft 394 kts 19°
2026-05-04 15:28 8.31920 -2.89556 22864 ft 394 kts 19°
2026-05-04 15:28 8.34476 -2.88688 22862 ft 394 kts 19°
2026-05-04 15:28 8.39718 -2.86905 22863 ft 394 kts 19°
2026-05-04 15:29 8.42318 -2.86025 22862 ft 394 kts 19°
2026-05-04 15:30 8.52725 -2.82492 22869 ft 394 kts 19°
2026-05-04 15:30 8.60500 -2.79853 22865 ft 394 kts 19°
2026-05-04 15:31 8.65701 -2.78083 22864 ft 394 kts 19°
2026-05-04 15:31 8.68298 -2.77200 22860 ft 394 kts 19°
2026-05-04 15:32 8.76091 -2.74553 22860 ft 394 kts 19°
2026-05-04 15:32 8.81279 -2.72792 22858 ft 393 kts 19°
2026-05-04 15:33 8.86466 -2.71032 22861 ft 393 kts 19°
2026-05-04 15:34 8.94229 -2.68383 22856 ft 392 kts 19°
2026-05-04 15:34 8.96816 -2.67501 22852 ft 392 kts 19°
2026-05-04 15:34 9.01991 -2.65743 22852 ft 392 kts 19°
2026-05-04 15:35 9.07160 -2.63983 22851 ft 392 kts 19°
2026-05-04 15:35 9.09744 -2.63099 22849 ft 392 kts 19°
2026-05-04 15:35 9.12292 -2.62227 22849 ft 392 kts 19°
2026-05-04 15:36 9.17454 -2.60453 22845 ft 392 kts 19°
2026-05-04 15:36 9.20035 -2.59567 22845 ft 392 kts 19°
2026-05-04 15:36 9.22616 -2.58686 22845 ft 391 kts 19°
2026-05-04 15:37 9.25197 -2.57806 22840 ft 391 kts 19°
2026-05-04 15:37 9.27778 -2.56927 22840 ft 391 kts 19°
2026-05-04 15:37 9.30359 -2.56050 22835 ft 391 kts 19°
2026-05-04 15:37 9.32939 -2.55168 22834 ft 391 kts 19°
2026-05-04 15:38 9.35519 -2.54284 22832 ft 391 kts 19°
2026-05-04 15:38 9.38099 -2.53401 22837 ft 391 kts 19°
2026-05-04 15:38 9.40681 -2.52515 22833 ft 392 kts 19°
2026-05-04 15:38 9.43259 -2.51630 22830 ft 392 kts 19°
2026-05-04 15:39 9.45841 -2.50745 22831 ft 392 kts 19°
2026-05-04 15:39 9.48425 -2.49858 22829 ft 392 kts 19°
2026-05-04 15:39 9.53599 -2.48087 22832 ft 393 kts 19°
2026-05-04 15:40 9.56186 -2.47200 22832 ft 393 kts 19°
2026-05-04 15:40 9.58774 -2.46312 22831 ft 393 kts 19°
2026-05-04 15:40 9.61366 -2.45420 22831 ft 393 kts 19°
2026-05-04 15:40 9.63959 -2.44529 22835 ft 394 kts 19°
2026-05-04 15:41 9.66557 -2.43640 22836 ft 394 kts 19°
2026-05-04 15:41 9.69154 -2.42752 22834 ft 394 kts 19°
2026-05-04 15:41 9.71755 -2.41864 22836 ft 394 kts 19°
2026-05-04 15:41 9.74355 -2.40976 22837 ft 394 kts 19°
2026-05-04 15:42 9.76955 -2.40086 22841 ft 394 kts 19°
2026-05-04 15:42 9.79557 -2.39195 22843 ft 395 kts 19°
2026-05-04 15:42 9.82154 -2.38301 22842 ft 395 kts 19°
2026-05-04 15:42 9.84755 -2.37405 22846 ft 395 kts 19°
2026-05-04 15:43 9.87356 -2.36512 22842 ft 395 kts 19°
2026-05-04 15:43 9.89958 -2.35616 22846 ft 395 kts 19°
2026-05-04 15:43 9.92559 -2.34718 22850 ft 395 kts 19°
2026-05-04 15:43 9.95161 -2.33825 22844 ft 395 kts 19°
2026-05-04 15:44 9.97766 -2.32934 22848 ft 395 kts 19°
2026-05-04 15:44 10.00366 -2.32045 22846 ft 395 kts 19°
2026-05-04 15:44 10.02968 -2.31153 22849 ft 395 kts 19°
2026-05-04 15:44 10.05568 -2.30258 22847 ft 395 kts 19°
2026-05-04 15:45 10.08166 -2.29359 22849 ft 395 kts 19°
2026-05-04 15:45 10.10764 -2.28462 22847 ft 395 kts 19°
2026-05-04 15:45 10.13367 -2.27570 22850 ft 395 kts 19°
2026-05-04 15:45 10.15969 -2.26680 22854 ft 394 kts 19°
2026-05-04 15:46 10.18574 -2.25788 22855 ft 394 kts 19°
2026-05-04 15:46 10.21171 -2.24896 22851 ft 394 kts 19°
2026-05-04 15:46 10.23767 -2.24002 22857 ft 394 kts 19°
2026-05-04 15:46 10.26371 -2.23109 22849 ft 394 kts 19°
2026-05-04 15:47 10.28974 -2.22216 22855 ft 394 kts 19°
2026-05-04 15:47 10.31574 -2.21324 22857 ft 394 kts 19°
2026-05-04 15:47 10.34173 -2.20433 22856 ft 394 kts 19°
2026-05-04 15:47 10.36776 -2.19544 22857 ft 394 kts 19°
2026-05-04 15:48 10.39378 -2.18658 22855 ft 394 kts 19°
2026-05-04 15:48 10.41981 -2.17770 22855 ft 394 kts 19°
2026-05-04 15:48 10.47180 -2.15980 22861 ft 394 kts 19°
2026-05-04 15:49 10.48901 -2.15388 22867 ft 394 kts 19°
2026-05-04 15:49 10.52373 -2.14197 22870 ft 394 kts 19°
2026-05-04 15:49 10.54095 -2.13606 22877 ft 394 kts 19°
2026-05-04 15:49 10.57571 -2.12414 22876 ft 394 kts 19°
2026-05-04 15:50 10.59292 -2.11824 22875 ft 394 kts 19°
2026-05-04 15:50 10.61887 -2.10934 22874 ft 394 kts 19°
2026-05-04 15:50 10.64482 -2.10044 22878 ft 394 kts 19°
2026-05-04 15:50 10.67082 -2.09151 22873 ft 394 kts 19°
2026-05-04 15:51 10.69677 -2.08262 22876 ft 394 kts 19°
2026-05-04 15:51 10.72272 -2.07372 22877 ft 394 kts 19°
2026-05-04 15:51 10.74866 -2.06481 22885 ft 394 kts 19°
2026-05-04 15:51 10.77461 -2.05586 22876 ft 394 kts 19°
2026-05-04 15:52 10.80054 -2.04692 22875 ft 394 kts 19°
2026-05-04 15:52 10.82649 -2.03802 22878 ft 393 kts 19°
2026-05-04 15:52 10.85244 -2.02916 22880 ft 393 kts 19°
2026-05-04 15:52 10.87838 -2.02027 22874 ft 393 kts 19°
2026-05-04 15:53 10.90430 -2.01134 22872 ft 393 kts 19°
2026-05-04 15:53 10.93020 -2.00241 22874 ft 393 kts 19°
2026-05-04 15:53 10.95611 -1.99348 22879 ft 393 kts 19°
2026-05-04 15:53 10.98208 -1.98454 22875 ft 393 kts 19°
2026-05-04 15:54 11.00800 -1.97562 22874 ft 393 kts 19°
2026-05-04 15:54 11.03392 -1.96671 22874 ft 393 kts 19°
2026-05-04 15:54 11.05985 -1.95780 22874 ft 394 kts 19°
2026-05-04 15:54 11.08579 -1.94887 22880 ft 394 kts 20°
2026-05-04 15:55 11.11140 -1.94005 22878 ft 394 kts 19°
2026-05-04 15:55 11.13741 -1.93110 22885 ft 394 kts 20°
2026-05-04 15:55 11.16328 -1.92219 22886 ft 393 kts 20°
2026-05-04 15:55 11.18928 -1.91324 22883 ft 393 kts 20°
2026-05-04 15:56 11.21518 -1.90433 22883 ft 393 kts 19°
2026-05-04 15:56 11.24112 -1.89539 22879 ft 393 kts 20°
2026-05-04 15:56 11.26707 -1.88642 22885 ft 393 kts 20°
2026-05-04 15:56 11.29293 -1.87747 22887 ft 393 kts 20°
2026-05-04 15:57 11.31886 -1.86851 22882 ft 393 kts 20°
2026-05-04 15:57 11.34473 -1.85962 22884 ft 392 kts 20°
2026-05-04 15:57 11.37056 -1.85074 22889 ft 392 kts 20°
2026-05-04 15:57 11.39642 -1.84182 22886 ft 392 kts 20°
2026-05-04 15:58 11.42233 -1.83287 22887 ft 392 kts 20°
2026-05-04 15:58 11.44821 -1.82394 22881 ft 392 kts 20°
2026-05-04 15:58 11.47408 -1.81504 22884 ft 392 kts 20°
2026-05-04 15:58 11.49994 -1.80615 22881 ft 393 kts 20°
2026-05-04 15:59 11.52579 -1.79720 22881 ft 393 kts 20°
2026-05-04 15:59 11.55136 -1.78833 22876 ft 393 kts 20°
2026-05-04 15:59 11.57728 -1.77937 22876 ft 393 kts 20°
2026-05-04 15:59 11.60318 -1.77042 22881 ft 393 kts 20°
2026-05-04 16:00 11.62906 -1.76146 22878 ft 393 kts 20°
2026-05-04 16:00 11.65496 -1.75249 22882 ft 393 kts 20°
2026-05-04 16:00 11.68085 -1.74353 22873 ft 393 kts 20°
2026-05-04 16:00 11.70675 -1.73456 22874 ft 393 kts 20°
2026-05-04 16:01 11.73265 -1.72559 22883 ft 393 kts 20°
2026-05-04 16:01 11.75855 -1.71663 22874 ft 393 kts 20°
2026-05-04 16:01 11.78441 -1.70772 22818 ft 392 kts 20°
2026-05-04 16:01 11.81010 -1.69886 22555 ft 387 kts 20°
2026-05-04 16:02 11.83549 -1.69007 22303 ft 384 kts 20°
2026-05-04 16:02 11.86075 -1.68133 22045 ft 382 kts 20°
2026-05-04 16:02 11.90656 -1.65616 21426 ft 372 kts 45°
2026-05-04 16:03 11.92221 -1.63540 20941 ft 369 kts 62°
2026-05-04 16:03 11.93138 -1.61104 20375 ft 369 kts 77°
2026-05-04 16:03 11.93352 -1.58494 19796 ft 372 kts 93°
2026-05-04 16:03 11.93053 -1.55864 19213 ft 374 kts 95°
2026-05-04 16:04 11.92845 -1.53214 18631 ft 375 kts 92°
2026-05-04 16:04 11.93387 -1.48087 17657 ft 365 kts 66°
2026-05-04 16:04 11.94796 -1.45953 17170 ft 364 kts 47°
2026-05-04 16:05 11.96829 -1.44427 16684 ft 364 kts 28°
2026-05-04 16:05 11.99235 -1.43686 15967 ft 364 kts
2026-05-04 16:05 12.04220 -1.44361 14692 ft 357 kts 351°
2026-05-04 16:06 12.06626 -1.44870 14162 ft 349 kts 352°
2026-05-04 16:06 12.12966 -1.45800 12703 ft 344 kts 10°
2026-05-04 16:07 12.15909 -1.44819 12006 ft 325 kts 33°
2026-05-04 16:07 12.20088 -1.39886 10715 ft 306 kts 54°
2026-05-04 16:08 12.21475 -1.38230 10280 ft 307 kts 47°
2026-05-04 16:08 12.26444 -1.34511 9687 ft 287 kts 29°
2026-05-04 16:09 12.30182 -1.33105 9000 ft 286 kts 16°
2026-05-04 16:09 12.34111 -1.32553 8010 ft 284 kts
2026-05-04 16:10 12.38030 -1.32882 6789 ft 283 kts 349°
2026-05-04 16:11 12.42999 -1.35651 5238 ft 269 kts 321°
2026-05-04 16:11 12.44434 -1.36799 5054 ft 253 kts 321°
2026-05-04 16:12 12.47752 -1.40224 4693 ft 213 kts 284°
2026-05-04 16:12 12.46260 -1.43960 4250 ft 189 kts 223°
2026-05-04 16:13 12.44258 -1.45796 3128 ft 195 kts 217°
2026-05-04 16:13 12.41895 -1.46766 2627 ft 164 kts 203°
2026-05-04 16:14 12.40169 -1.47874 2121 ft 142 kts 226°
2026-05-04 16:14 12.38637 -1.48990 1683 ft 131 kts 221°
2026-05-04 16:15 12.36403 -1.50569 1009 ft 134 kts 217°
2026-05-04 16:16 12.35522 -1.51100 1008 ft 38 kts 212°
2026-05-04 16:16 12.35259 -1.51356 1009 ft 10 kts 302°
2026-05-04 16:17 12.35263 -1.51362 1009 ft 3 kts 303°
2026-05-04 16:18 12.35283 -1.51393 1007 ft 6 kts 304°
2026-05-04 16:18 12.35309 -1.51431 1006 ft 6 kts 304°
2026-05-04 16:19 12.35362 -1.51375 1006 ft 3 kts 41°
2026-05-04 16:19 12.35372 -1.51368 1006 ft 0 kts 34°
2026-05-04 16:21 12.35198 -1.51545 1006 ft 0 kts 348°
2026-05-04 16:35 12.35197 -1.51544 1006 ft 0 kts 348°
2026-05-04 16:57 12.35196 -1.51544 1006 ft 0 kts 348°
2026-05-04 17:43 12.35195 -1.51544 1006 ft 0 kts 348°